Hourly Weather Benguela

Today, 4 August, Tuesday

Time Temperature Precipitation Wind Pressure Humidity
00:00 +22°C° 0 mm 1 mps 762 mmHg 85%
01:00 +23°C° 0 mm 1 mps 762 mmHg 85%
02:00 +22°C° 0 mm 1 mps 762 mmHg 87%
03:00 +19°C° 0 mm 0 mps 761 mmHg 88%
04:00 +19°C° 0 mm 0 mps 761 mmHg 90%
05:00 +19°C° 0 mm 0 mps 762 mmHg 89%
06:00 +21°C° 0 mm 1 mps 762 mmHg 89%
07:00 +21°C° 0 mm 1 mps 762 mmHg 89%
08:00 +24°C° 0 mm 2 mps 762 mmHg 79%
09:00 +26°C° 0 mm 2 mps 762 mmHg 68%
10:00 +28°C° 0 mm 3 mps 762 mmHg 58%
11:00 +29°C° 0 mm 3 mps 761 mmHg 57%
12:00 +29°C° 0 mm 3 mps 761 mmHg 56%
13:00 +30°C° 0 mm 4 mps 760 mmHg 55%
14:00 +29°C° 0 mm 4 mps 759 mmHg 58%
15:00 +28°C° 0 mm 3 mps 759 mmHg 61%
16:00 +28°C° 0 mm 3 mps 759 mmHg 63%
17:00 +26°C° 0 mm 3 mps 759 mmHg 72%
18:00 +24°C° 0 mm 2 mps 760 mmHg 81%
19:00 +21°C° 0 mm 2 mps 760 mmHg 90%
20:00 +23°C° 0 mm 1 mps 761 mmHg 88%
21:00 +23°C° 0 mm 1 mps 762 mmHg 86%
22:00 +23°C° 0 mm 1 mps 762 mmHg 84%
23:00 +22°C° 0 mm 1 mps 762 mmHg 86%

Tomorrow, 5 August, Wednesday

Time Temperature Precipitation Wind Pressure Humidity
00:00 +21°C° 0 mm 1 mps 762 mmHg 88%
01:00 +20°C° 0 mm 1 mps 762 mmHg 90%
02:00 +20°C° 0 mm 1 mps 762 mmHg 91%
03:00 +20°C° 0 mm 1 mps 761 mmHg 91%
04:00 +19°C° 0 mm 1 mps 761 mmHg 92%
05:00 +20°C° 0 mm 1 mps 761 mmHg 90%
06:00 +20°C° 0 mm 1 mps 762 mmHg 88%
07:00 +21°C° 0 mm 1 mps 762 mmHg 86%
08:00 +23°C° 0 mm 1 mps 762 mmHg 74%
09:00 +26°C° 0 mm 1 mps 762 mmHg 62%
10:00 +29°C° 0 mm 2 mps 762 mmHg 50%
11:00 +29°C° 0 mm 3 mps 761 mmHg 51%
12:00 +29°C° 0 mm 4 mps 760 mmHg 53%
13:00 +29°C° 0 mm 5 mps 760 mmHg 54%
14:00 +29°C° 0 mm 4 mps 759 mmHg 57%
15:00 +28°C° 0 mm 4 mps 759 mmHg 61%
16:00 +27°C° 0 mm 4 mps 759 mmHg 64%
17:00 +26°C° 0 mm 3 mps 759 mmHg 70%
18:00 +24°C° 0 mm 3 mps 760 mmHg 76%
19:00 +22°C° 0 mm 3 mps 761 mmHg 83%
20:00 +23°C° 0 mm 2 mps 761 mmHg 82%
21:00 +23°C° 0 mm 1 mps 762 mmHg 81%
22:00 +23°C° 0 mm 1 mps 762 mmHg 81%
23:00 +22°C° 0 mm 1 mps 762 mmHg 83%

Day after tomorrow, 6 August, Thursday

Time Temperature Precipitation Wind Pressure Humidity
00:00 +21°C° 0 mm 1 mps 762 mmHg 86%
01:00 +20°C° 0 mm 1 mps 762 mmHg 88%
02:00 +20°C° 0 mm 1 mps 761 mmHg 90%
03:00 +19°C° 0 mm 1 mps 761 mmHg 92%
04:00 +19°C° 0 mm 1 mps 761 mmHg 93%
05:00 +19°C° 0 mm 1 mps 761 mmHg 92%
06:00 +20°C° 0 mm 1 mps 761 mmHg 90%
07:00 +20°C° 0 mm 1 mps 761 mmHg 88%
08:00 +23°C° 0 mm 1 mps 761 mmHg 78%
09:00 +25°C° 0 mm 2 mps 761 mmHg 67%
10:00 +27°C° 0 mm 2 mps 761 mmHg 56%
11:00 +28°C° 0 mm 3 mps 760 mmHg 55%
12:00 +29°C° 0 mm 4 mps 760 mmHg 54%
13:00 +29°C° 0 mm 4 mps 759 mmHg 53%
14:00 +28°C° 0 mm 4 mps 759 mmHg 57%
15:00 +27°C° 0 mm 4 mps 758 mmHg 61%
16:00 +26°C° 0 mm 3 mps 758 mmHg 65%
17:00 +25°C° 0 mm 3 mps 758 mmHg 72%
18:00 +23°C° 0 mm 2 mps 759 mmHg 79%
19:00 +21°C° 0 mm 2 mps 760 mmHg 87%
20:00 +22°C° 0 mm 1 mps 760 mmHg 85%
21:00 +22°C° 0 mm 1 mps 761 mmHg 84%
22:00 +22°C° 0 mm 1 mps 762 mmHg 82%
23:00 +19°C° 0 mm 0 mps 762 mmHg 86%

7 August, Friday

Time Temperature Precipitation Wind Pressure Humidity
00:00 +18°C° 0 mm 0 mps 761 mmHg 89%
01:00 +17°C° 0 mm 0 mps 761 mmHg 93%
02:00 +17°C° 0 mm 0 mps 761 mmHg 94%
03:00 +17°C° 0 mm 0 mps 761 mmHg 94%
04:00 +16°C° 0 mm 0 mps 761 mmHg 95%
05:00 +19°C° 0 mm 1 mps 761 mmHg 94%
06:00 +20°C° 0 mm 1 mps 761 mmHg 93%
07:00 +20°C° 0 mm 1 mps 762 mmHg 92%
08:00 +21°C° 0 mm 2 mps 762 mmHg 82%
09:00 +24°C° 0 mm 2 mps 762 mmHg 73%
10:00 +26°C° 0 mm 3 mps 762 mmHg 64%
11:00 +27°C° 0 mm 3 mps 761 mmHg 61%
12:00 +27°C° 0 mm 4 mps 760 mmHg 59%
13:00 +28°C° 0 mm 5 mps 759 mmHg 57%
14:00 +27°C° 0 mm 4 mps 759 mmHg 60%
15:00 +26°C° 0 mm 4 mps 759 mmHg 64%
16:00 +26°C° 0 mm 4 mps 758 mmHg 68%
17:00 +25°C° 0 mm 3 mps 759 mmHg 72%
18:00 +24°C° 0 mm 2 mps 760 mmHg 76%
19:00 +23°C° 0 mm 2 mps 761 mmHg 79%
20:00 +23°C° 0 mm 2 mps 761 mmHg 79%
21:00 +23°C° 0 mm 1 mps 762 mmHg 78%
22:00 +23°C° 0 mm 1 mps 762 mmHg 77%
23:00 +22°C° 0 mm 1 mps 762 mmHg 81%

8 August, Saturday

Time Temperature Precipitation Wind Pressure Humidity
00:00 +21°C° 0 mm 1 mps 762 mmHg 86%
01:00 +20°C° 0 mm 1 mps 762 mmHg 90%
02:00 +19°C° 0 mm 1 mps 761 mmHg 91%
03:00 +19°C° 0 mm 1 mps 761 mmHg 92%
04:00 +18°C° 0 mm 1 mps 761 mmHg 93%
05:00 +19°C° 0 mm 1 mps 761 mmHg 92%
06:00 +20°C° 0 mm 1 mps 762 mmHg 90%
07:00 +20°C° 0 mm 1 mps 762 mmHg 89%
08:00 +22°C° 0 mm 1 mps 762 mmHg 81%
09:00 +24°C° 0 mm 1 mps 762 mmHg 74%
10:00 +25°C° 0 mm 1 mps 762 mmHg 66%
11:00 +26°C° 0 mm 2 mps 761 mmHg 65%
12:00 +26°C° 0 mm 3 mps 761 mmHg 64%
13:00 +27°C° 0 mm 4 mps 760 mmHg 62%
14:00 +26°C° 0 mm 4 mps 760 mmHg 66%
15:00 +25°C° 0 mm 4 mps 759 mmHg 69%
16:00 +23°C° 0 mm 4 mps 759 mmHg 72%
17:00 +24°C° 0 mm 3 mps 760 mmHg 75%
18:00 +22°C° 0 mm 3 mps 760 mmHg 78%
19:00 +22°C° 0 mm 3 mps 761 mmHg 81%
20:00 +21°C° 0 mm 2 mps 762 mmHg 81%
21:00 +21°C° 0 mm 2 mps 762 mmHg 82%
22:00 +21°C° 0 mm 2 mps 762 mmHg 82%
23:00 +20°C° 0 mm 2 mps 762 mmHg 85%

9 August, Sunday

Time Temperature Precipitation Wind Pressure Humidity
00:00 +19°C° 0 mm 2 mps 762 mmHg 88%
01:00 +18°C° 0 mm 2 mps 761 mmHg 90%
02:00 +19°C° 0 mm 1 mps 761 mmHg 91%
03:00 +18°C° 0 mm 1 mps 761 mmHg 91%
04:00 +18°C° 0 mm 1 mps 761 mmHg 92%
05:00 +19°C° 0 mm 1 mps 761 mmHg 90%
06:00 +19°C° 0 mm 1 mps 761 mmHg 89%
07:00 +20°C° 0 mm 1 mps 762 mmHg 87%
08:00 +22°C° 0 mm 1 mps 762 mmHg 79%
09:00 +24°C° 0 mm 1 mps 761 mmHg 70%
10:00 +26°C° 0 mm 2 mps 761 mmHg 62%
11:00 +27°C° 0 mm 2 mps 760 mmHg 59%
12:00 +28°C° 0 mm 3 mps 760 mmHg 56%
13:00 +29°C° 0 mm 4 mps 759 mmHg 53%
14:00 +28°C° 0 mm 4 mps 758 mmHg 56%
15:00 +27°C° 0 mm 4 mps 758 mmHg 59%
16:00 +26°C° 0 mm 4 mps 757 mmHg 63%
17:00 +25°C° 0 mm 3 mps 758 mmHg 69%
18:00 +24°C° 0 mm 3 mps 759 mmHg 75%
19:00 +21°C° 0 mm 2 mps 760 mmHg 82%
20:00 +21°C° 0 mm 2 mps 760 mmHg 81%
21:00 +21°C° 0 mm 2 mps 761 mmHg 81%
22:00 +21°C° 0 mm 2 mps 761 mmHg 81%
23:00 +20°C° 0 mm 2 mps 761 mmHg 84%
Show more